Flag for Vietnam Weather past 2 weeks in Hanoi, Vietnam

Now
95 °F

Partly sunny.


Feels Like: 116 °F
Forecast: 84 / 98 °F
Wind: 13 mph from Southeast

Location: Ha Noi Airport

Current Time: Jun 2, 2015 at 4:36:54 PM

Latest Report: Jun 2, 2015 at 4:00 PM


Visibility: N/A

Pressure: 29.56 "Hg

Humidity: 63%

Dew point: 81 °F

Location of HanoiLocation

Historic Weather in Hanoi — Graph

°F

Hanoi temperature yesterday

Maximum temperature yesterday: 99 °F (at 2:00 PM)
Minimum temperature yesterday: 75 °F (at 8:00 PM)
Average temperature yesterday: 87 °F

Past Weeks' High & Low Weather Summary

 TemperatureHumidityPressure
High102 °F (May 28, 3:00 PM)100% (May 20, 10:30 PM)29.74 "Hg (May 20, 10:30 PM)
Low75 °F (May 24, 1:00 AM)33% (May 28, 3:30 PM)29.45 "Hg (May 28, 4:30 PM)
Average87 °F73%29.61 "Hg
* Reported May 18 3:00 PM — Jun 2 3:00 PM, Hanoi, Weather by CustomWeather, © 2015

Note: Actual official high and low records may vary slightly from our data, if they occured in-between our weather recording intervals... More about our weather records

Advertising

Hanoi weather history for previous 24 hours

 ConditionsComfort  
Time TempWeatherWind HumidityBarometerVisibility
3:00 PM
Tue, Jun 2
93 °FPartly sunny.8 mph67%29.59 "HgN/A
2:30 PM93 °FPartly sunny.3 mph67%29.62 "HgN/A
2:00 PM93 °FBroken clouds.5 mph63%29.62 "HgN/A
1:30 PM93 °FBroken clouds.5 mph63%29.65 "HgN/A
1:00 PM91 °FBroken clouds.1 mph67%29.65 "HgN/A
12:30 PM91 °FPartly sunny.2 mph67%29.65 "HgN/A
12:00 PM91 °FPartly sunny.5 mph67%29.68 "HgN/A
11:30 AM90 °FPartly sunny.6 mph71%29.68 "HgN/A
10:30 AM88 °FPassing clouds.5 mph75%29.68 "HgN/A
10:00 AM86 °FPassing clouds.5 mph84%29.68 "HgN/A
9:30 AM84 °FSunny.6 mph84%29.68 "Hg10 mi
9:00 AM84 °FSunny.8 mph84%29.68 "Hg10 mi
8:30 AM82 °FSunny.8 mph89%29.68 "Hg10 mi
8:00 AM84 °FSunny.9 mph79%29.68 "Hg10 mi
7:30 AM82 °FSunny.9 mph84%29.68 "Hg10 mi
7:00 AM81 °FClear.9 mph89%29.68 "Hg4 mi
6:30 AM79 °FClear.10 mph89%29.65 "Hg5 mi
6:00 AM77 °FSunny.10 mph94%29.65 "Hg10 mi
5:30 AM77 °FPartly sunny.9 mph94%29.65 "HgN/A
5:00 AM77 °FPassing clouds.12 mph94%29.65 "HgN/A
4:30 AM77 °FPartly cloudy.12 mph94%29.65 "Hg6 mi
4:00 AM77 °FPartly cloudy.12 mph94%29.65 "Hg6 mi
3:30 AM77 °FClear.10 mph94%29.62 "Hg10 mi
2:30 AM79 °FPassing clouds.7 mph89%29.62 "Hg6 mi
2:00 AM79 °FPassing clouds.7 mph89%29.62 "Hg6 mi
1:30 AM79 °FPassing clouds.5 mph84%29.65 "HgN/A
1:00 AM79 °FPartly cloudy.8 mph89%29.65 "Hg5 mi
12:30 AM79 °FPartly cloudy.6 mph89%29.65 "Hg4 mi
12:00 AM77 °FLight rain. Partly cloudy.6 mph94%N/AN/A
11:30 PM
Mon, Jun 1
77 °FPassing clouds.8 mph94%29.68 "HgN/A
11:00 PM77 °FLight rain. Partly cloudy.8 mph94%29.68 "HgN/A
10:30 PM77 °FLight rain. Partly cloudy.7 mph94%29.71 "HgN/A
10:00 PM77 °FPassing clouds.8 mph94%29.71 "HgN/A
9:30 PM77 °FLight rain. Passing clouds.2 mph94%29.68 "HgN/A
9:00 PM75 °FLight rain. Passing clouds.8 mph100%29.68 "HgN/A
8:30 PM75 °FThunderstorms. Partly cloudy.21 mph94%29.74 "Hg3 mi
8:00 PM75 °FStrong thunderstorms. Partly cloudy.39 mph94%29.71 "Hg1 mi
7:30 PM91 °FPassing clouds.14 mph63%29.56 "HgN/A
7:00 PM93 °FPassing clouds.15 mph59%29.53 "HgN/A
6:30 PM93 °FPassing clouds.13 mph59%29.53 "HgN/A
6:00 PM95 °FPassing clouds.16 mph60%29.50 "HgN/A
5:30 PM97 °FPassing clouds.12 mph50%29.50 "HgN/A
5:00 PM99 °FPassing clouds.13 mph44%29.50 "HgN/A
4:30 PM99 °FSunny.14 mph47%29.50 "Hg10 mi
4:00 PM99 °FSunny.12 mph47%29.50 "Hg10 mi
Weather by CustomWeather, © 2015

See weather overviewHow to use our weather pages